Volver al catálogo

ONEWEB-0300

ActivoComunicacionesPO
NORAD 49089·PAYLOAD·🇬🇧 United Kingdom

Lanzado Aug 21, 2021 desde Baikonur Cosmodrome

Loading…

Próximos Pases (próximas 24 horas)

TLE

ActualizadoSource: CelesTrak SupGP

Época: Sep 14, 2026, 13:06 UTC

1 49089C 21075Q   26257.54631944  .00002393  00000+0  66613-2 0  2570
2 49089  87.8982 332.9208 0002274 103.6513 331.0857 13.12435655    18

Sigue ONEWEB-0300 en tiempo real con AllMySat

Download on the App Store